Temp
-7 -7 -7 -7 -7 -7 -7 -6 -7 -6 -7 -7 -7 -7 -7 -7 -8 -8 -8 -8 -8 -8 -8 -8 -8 -8 -9 -9 -8 -9 -9 -9 -9 -9 -9 -8 -8 -8 -8 -8 -10 -10 -10 -10 -9
-7 -7 -7 -7 -7 -7 -7 -7 -7 -6 -6 -7 -7 -7 -7 -7 -7 -8 -8 -8 -8 -8 -8 -8 -8 -8 -8 -8 -9 -8 -9 -9 -9 -9 -9 -9 -9 -9 -8 -8 -9 -10 -10 -10 -10
-7 -7 -7 -7 -6 -6 -6 -7 -7 -7 -7 -7 -7 -7 -7 -7 -7 -7 -8 -8 -8 -8 -8 -8 -8 -8 -8 -8 -8 -8 -9 -9 -9 -9 -9 -9 -9 -8 -8 -7 -8 -9 -9 -9 -9
-7 -7 -7 -6 -6 -6 -6 -7 -6 -6 -7 -7 -7 -7 -7 -7 -7 -7 -7 -8 -8 -8 -8 -8 -8 -8 -8 -8 -7 -8 -9 -9 -9 -9 -9 -9 -9 -8 -8 -8 -8 -8 -9 -9 -9
-7 -7 -7 -7 -6 -6 -6 -7 -7 -7 -7 -7 -7 -7 -7 -7 -7 -7 -7 -7 -7 -8 -8 -8 -8 -8 -8 -8 -7 -8 -8 -9 -9 -9 -8 -9 -9 -8 -8 -8 -8 -9 -9 -9 -9
-7 -7 -7 -7 -7 -7 -7 -7 -7 -7 -7 -7 -7 -7 -7 -7 -7 -7 -7 -7 -7 -7 -7 -7 -7 -8 -8 -8 -7 -7 -8 -8 -8 -8 -8 -8 -9 -8 -8 -8 -9 -8 -9 -9 -9
-8 -7 -7 -7 -7 -7 -7 -7 -7 -7 -7 -7 -7 -7 -7 -7 -7 -7 -7 -7 -7 -7 -7 -7 -7 -7 -8 -8 -8 -8 -8 -8 -8 -8 -8 -8 -9 -9 -8 -8 -9 -8 -9 -9 -9
-8 -8 -8 -7 -7 -7 -7 -7 -7 -7 -7 -7 -7 -7 -7 -7 -7 -7 -7 -7 -7 -7 -7 -7 -8 -8 -8 -8 -8 -8 -8 -8 -8 -8 -8 -9 -9 -9 -8 -9 -9 -9 -9 -9 -9
-8 -8 -8 -8 -8 -7 -7 -7 -7 -7 -7 -7 -7 -7 -7 -7 -7 -7 -7 -7 -7 -7 -7 -7 -7 -7 -8 -7 -8 -8 -9 -9 -8 -9 -9 -9 -9 -9 -8 -8 -9 -10 -10 -9 -10
-9 -8 -8 -8 -8 -7 -7 -7 -7 -7 -7 -7 -7 -7 -7 -7 -7 -7 -7 -7 -7 -7 -7 -7 -7 -7 -8 -8 -7 -8 -9 -9 -9 -9 -9 -9 -9 -8 -7 -7 -8 -9 -10 -9 -10
-9 -9 -9 -8 -8 -8 -8 -7 -7 -7 -8 -8 -8 -7 -7 -7 -7 -7 -7 -7 -7 -7 -7 -7 -8 -8 -8 -8 -8 -8 -8 -9 -9 -9 -9 -8 -8 -8 -8 -7 -8 -9 -8 -9 -10
-9 -9 -9 -9 -8 -8 -8 -8 -8 -8 -8 -7 -7 -7 -7 -7 -8 -7 -7 -7 -7 -8 -7 -7 -8 -8 -7 -8 -8 -8 -8 -8 -8 -9 -8 -8 -8 -8 -9 -9 -9 -9 -9 -10 -10
-9 -9 -9 -9 -9 -9 -8 -8 -8 -8 -8 -8 -8 -8 -7 -7 -7 -7 -7 -7 -7 -7 -8 -8 -8 -7 -7 -8 -8 -8 -7 -8 -8 -8 -8 -8 -8 -8 -9 -9 -9 -9 -10 -10 -10
-9 -9 -9 -9 -9 -9 -9 -9 -9 -8 -8 -8 -8 -8 -7 -8 -8 -8 -8 -8 -7 -8 -8 -8 -7 -8 -7 -8 -8 -8 -8 -8 -8 -8 -8 -8 -8 -8 -9 -9 -9 -10 -10 -10 -10
-10 -9 -9 -9 -9 -9 -9 -9 -9 -8 -8 -8 -8 -8 -8 -8 -8 -8 -8 -7 -7 -8 -8 -9 -8 -8 -8 -8 -8 -8 -9 -9 -9 -9 -8 -9 -9 -9 -9 -9 -9 -9 -9 -10 -11
-10 -10 -10 -10 -9 -9 -9 -9 -9 -9 -8 -8 -8 -8 -8 -8 -8 -8 -8 -8 -8 -8 -8 -9 -8 -8 -8 -8 -8 -8 -9 -9 -9 -9 -9 -9 -9 -9 -9 -10 -11 -10 -11 -11 -11
-10 -10 -10 -10 -10 -10 -10 -9 -9 -8 -9 -9 -8 -8 -8 -8 -8 -8 -8 -8 -8 -8 -8 -9 -8 -8 -8 -9 -9 -9 -9 -10 -10 -9 -9 -9 -9 -9 -9 -9 -10 -10 -11 -11 -11
-11 -10 -10 -11 -10 -10 -10 -10 -9 -9 -10 -9 -9 -9 -9 -9 -9 -8 -9 -8 -8 -9 -9 -9 -9 -9 -9 -10 -10 -10 -10 -10 -9 -10 -10 -10 -9 -9 -9 -10 -10 -10 -10 -10 -11
-11 -11 -11 -11 -11 -11 -10 -10 -10 -10 -10 -10 -10 -10 -10 -9 -9 -9 -9 -9 -9 -9 -9 -9 -10 -10 -10 -10 -10 -10 -10 -10 -10 -10 -10 -10 -10 -10 -10 -10 -11 -11 -11 -11 -11
-12 -12 -11 -11 -11 -11 -11 -10 -10 -11 -10 -10 -10 -10 -10 -10 -9 -9 -9 -9 -9 -9 -10 -10 -10 -10 -10 -10 -10 -10 -11 -11 -11 -11 -11 -11 -10 -11 -11 -11 -11 -11 -12 -12 -12
-13 -13 -12 -12 -12 -11 -11 -11 -11 -11 -11 -10 -10 -10 -10 -10 -10 -10 -9 -10 -10 -10 -10 -10 -10 -10 -10 -10 -10 -10 -10 -11 -11 -11 -12 -12 -11 -12 -12 -12 -12 -13 -12 -12 -12
-14 -13 -13 -12 -12 -12 -12 -12 -12 -12 -11 -11 -11 -10 -10 -10 -10 -10 -10 -10 -10 -10 -10 -10 -10 -11 -10 -10 -11 -11 -11 -11 -12 -12 -12 -12 -12 -12 -13 -13 -13 -13 -13 -13 -13
-14 -14 -13 -13 -12 -12 -13 -12 -12 -12 -12 -11 -11 -11 -11 -11 -11 -11 -11 -11 -11 -12 -12 -12 -11 -12 -11 -11 -11 -11 -12 -12 -12 -12 -12 -12 -12 -13 -13 -13 -13 -13 -12 -13 -12
-14 -14 -14 -13 -13 -13 -13 -13 -13 -13 -12 -12 -12 -12 -12 -11 -11 -11 -11 -11 -11 -12 -12 -13 -12 -12 -12 -12 -12 -12 -13 -12 -13 -13 -13 -13 -13 -13 -13 -13 -13 -12 -12 -12 -12
-15 -15 -14 -14 -13 -13 -13 -13 -13 -13 -13 -12 -12 -12 -12 -12 -12 -12 -12 -13 -13 -13 -13 -13 -13 -13 -13 -12 -13 -13 -13 -13 -13 -14 -13 -13 -13 -13 -12 -12 -12 -12 -12 -12 -12
-16 -15 -15 -14 -14 -14 -14 -14 -14 -13 -13 -13 -12 -13 -12 -13 -13 -14 -14 -14 -14 -14 -14 -14 -14 -14 -13 -13 -13 -13 -13 -12 -13 -13 -13 -13 -13 -13 -12 -12 -12 -12 -12 -12 -12
-17 -16 -15 -15 -14 -14 -14 -14 -14 -14 -14 -13 -13 -13 -13 -13 -13 -13 -14 -14 -14 -14 -14 -15 -14 -14 -14 -14 -14 -13 -13 -13 -13 -13 -13 -13 -13 -12 -12 -12 -12 -12 -12 -12 -12
Height
5868 5868 5868 5869 5870 5871 5871 5872 5873 5874 5875 5876 5877 5878 5880 5881 5882 5883 5884 5886 5886 5887 5889 5890 5892 5894 5895 5899 5902 5906 5906 5907 5907 5909 5910 5913 5915 5916 5916 5914 5914 5912 5913 5915 5913
5865 5866 5866 5867 5867 5868 5869 5870 5871 5873 5874 5875 5876 5877 5878 5879 5880 5881 5883 5884 5885 5886 5888 5890 5890 5892 5894 5895 5898 5903 5905 5906 5905 5907 5908 5910 5912 5915 5915 5913 5913 5912 5913 5914 5912
5862 5863 5863 5864 5865 5866 5867 5868 5869 5870 5872 5873 5874 5875 5876 5877 5879 5880 5880 5882 5883 5885 5887 5888 5889 5891 5893 5894 5895 5900 5901 5903 5903 5905 5905 5908 5910 5912 5913 5913 5912 5912 5913 5913 5911
5859 5860 5861 5862 5863 5864 5865 5866 5867 5867 5869 5871 5872 5873 5874 5875 5878 5878 5879 5880 5881 5883 5886 5887 5888 5890 5891 5892 5894 5897 5896 5901 5902 5904 5904 5906 5909 5910 5911 5910 5911 5912 5911 5910 5909
5855 5857 5858 5859 5861 5862 5863 5864 5865 5865 5867 5868 5870 5871 5872 5873 5875 5876 5877 5879 5880 5882 5883 5885 5887 5889 5891 5893 5894 5895 5895 5900 5899 5900 5902 5905 5907 5909 5911 5910 5910 5909 5908 5908 5906
5851 5853 5855 5856 5858 5860 5861 5862 5863 5864 5864 5866 5867 5868 5870 5872 5872 5874 5875 5877 5879 5880 5882 5884 5886 5888 5890 5893 5893 5894 5896 5899 5897 5900 5900 5903 5906 5907 5909 5910 5907 5906 5906 5906 5905
5846 5848 5850 5852 5854 5856 5858 5860 5861 5862 5863 5864 5865 5866 5868 5871 5871 5871 5873 5875 5877 5879 5881 5883 5885 5886 5889 5891 5893 5894 5896 5897 5896 5898 5899 5900 5904 5905 5906 5906 5904 5904 5905 5905 5903
5842 5843 5846 5848 5850 5852 5855 5856 5858 5860 5861 5862 5863 5864 5866 5866 5866 5868 5870 5872 5874 5875 5877 5880 5882 5884 5885 5888 5890 5891 5893 5894 5896 5896 5897 5898 5899 5900 5900 5901 5900 5901 5902 5902 5901
5837 5839 5841 5843 5845 5848 5850 5852 5855 5857 5858 5860 5861 5862 5863 5863 5865 5867 5868 5869 5871 5873 5875 5877 5879 5881 5883 5884 5885 5886 5889 5892 5893 5892 5893 5894 5895 5896 5896 5897 5896 5898 5899 5900 5899
5832 5833 5835 5838 5840 5842 5846 5848 5850 5853 5855 5856 5857 5860 5860 5861 5862 5863 5864 5866 5868 5870 5873 5875 5877 5878 5880 5881 5883 5883 5885 5887 5889 5889 5888 5889 5892 5893 5896 5895 5894 5894 5895 5896 5895
5826 5828 5830 5832 5834 5837 5841 5843 5847 5849 5849 5851 5853 5854 5857 5856 5859 5860 5861 5862 5865 5867 5869 5871 5874 5876 5875 5877 5880 5881 5882 5884 5884 5884 5884 5885 5888 5891 5891 5891 5891 5892 5892 5893 5893
5822 5823 5824 5826 5827 5831 5834 5837 5840 5842 5843 5844 5846 5848 5852 5853 5854 5856 5859 5860 5861 5862 5864 5868 5870 5869 5870 5873 5875 5877 5878 5880 5881 5881 5881 5883 5886 5887 5886 5888 5889 5890 5889 5889 5889
5816 5818 5819 5821 5822 5825 5828 5832 5833 5833 5837 5838 5841 5843 5846 5849 5850 5851 5853 5856 5857 5857 5860 5863 5863 5864 5867 5869 5870 5871 5874 5876 5878 5877 5878 5880 5882 5882 5883 5884 5884 5883 5882 5883 5883
5809 5811 5813 5814 5818 5819 5823 5825 5826 5827 5831 5834 5835 5836 5841 5843 5845 5846 5847 5851 5853 5855 5855 5858 5858 5860 5863 5863 5864 5867 5869 5870 5873 5873 5873 5874 5876 5877 5878 5879 5879 5876 5875 5876 5876
5799 5802 5805 5807 5809 5812 5817 5817 5818 5822 5824 5827 5829 5831 5834 5838 5838 5841 5842 5844 5847 5848 5852 5853 5853 5855 5859 5858 5861 5864 5863 5864 5867 5869 5870 5870 5870 5871 5871 5872 5873 5872 5870 5869 5868
5789 5792 5795 5798 5800 5805 5807 5808 5812 5815 5817 5820 5823 5824 5828 5831 5832 5834 5838 5840 5840 5842 5846 5845 5847 5851 5853 5854 5856 5859 5859 5860 5861 5864 5865 5866 5865 5865 5868 5869 5866 5865 5865 5865 5863
5778 5781 5786 5787 5789 5795 5798 5800 5804 5804 5812 5813 5815 5818 5820 5824 5825 5828 5830 5833 5836 5838 5843 5841 5843 5847 5849 5850 5851 5853 5855 5856 5856 5857 5859 5860 5859 5860 5860 5862 5862 5862 5862 5860 5859
5766 5770 5774 5775 5780 5784 5787 5790 5794 5800 5803 5805 5808 5811 5815 5816 5819 5821 5823 5827 5830 5833 5835 5837 5838 5842 5844 5846 5846 5848 5851 5851 5851 5852 5853 5853 5854 5856 5855 5855 5855 5854 5853 5852 5850
5755 5758 5762 5766 5769 5773 5777 5779 5787 5791 5794 5797 5801 5803 5806 5809 5811 5815 5818 5822 5824 5827 5830 5833 5835 5835 5839 5840 5842 5844 5845 5847 5846 5847 5848 5849 5850 5850 5851 5850 5849 5848 5846 5843 5842
5744 5747 5751 5754 5757 5761 5765 5770 5776 5781 5785 5788 5790 5795 5797 5801 5804 5807 5812 5817 5819 5821 5823 5826 5830 5830 5832 5834 5836 5837 5841 5841 5842 5841 5843 5843 5844 5845 5844 5844 5842 5840 5839 5837 5835
5734 5736 5740 5743 5746 5750 5755 5762 5767 5771 5774 5779 5780 5785 5789 5793 5796 5800 5805 5810 5812 5814 5816 5819 5823 5826 5826 5828 5830 5831 5833 5836 5837 5837 5837 5838 5840 5840 5839 5838 5836 5834 5832 5830 5827
5723 5725 5730 5733 5737 5740 5746 5753 5756 5759 5763 5768 5771 5775 5782 5785 5788 5793 5797 5802 5805 5808 5810 5813 5816 5817 5820 5821 5823 5824 5826 5828 5830 5832 5831 5832 5835 5834 5833 5832 5830 5828 5825 5823 5821
5710 5712 5719 5723 5727 5731 5736 5742 5746 5750 5754 5760 5764 5767 5771 5777 5782 5785 5790 5795 5798 5802 5805 5807 5808 5812 5813 5817 5818 5819 5820 5823 5824 5824 5825 5827 5829 5828 5828 5826 5824 5821 5820 5819 5816
5697 5700 5707 5712 5717 5722 5726 5732 5737 5743 5747 5751 5756 5759 5763 5768 5773 5778 5782 5785 5788 5793 5798 5801 5802 5806 5811 5814 5815 5816 5817 5817 5819 5820 5819 5820 5821 5820 5820 5819 5817 5815 5815 5813 5810
5683 5688 5694 5701 5707 5712 5717 5724 5729 5734 5738 5741 5746 5751 5756 5759 5765 5769 5774 5778 5781 5784 5788 5793 5796 5800 5803 5806 5808 5810 5810 5811 5812 5813 5813 5814 5813 5814 5814 5813 5811 5810 5809 5807 5804
5669 5676 5681 5689 5697 5702 5707 5714 5719 5723 5728 5731 5737 5741 5746 5752 5758 5763 5767 5771 5776 5779 5781 5784 5787 5791 5795 5798 5801 5802 5802 5803 5804 5805 5806 5806 5808 5806 5806 5806 5806 5804 5803 5801 5799
5656 5662 5668 5675 5683 5692 5697 5703 5709 5715 5720 5721 5727 5733 5739 5744 5748 5754 5758 5763 5768 5772 5776 5778 5782 5784 5787 5790 5792 5793 5796 5796 5796 5798 5799 5800 5800 5798 5799 5800 5799 5798 5797 5795 5793
Wind_Speed
14 15 15 14 14 12 11 10 9 8 7 6 9 11 11 12 12 12 11 10 12 12 13 11 8 10 19 26 28 21 24 22 22 18 17 21 19 11 12 3 7 12 15 12 18
16 16 15 14 14 13 14 14 12 11 10 9 8 9 10 11 12 14 14 12 12 11 11 12 12 12 13 19 29 26 26 24 25 23 22 22 18 14 8 1 4 7 10 12 22
16 16 15 14 13 12 13 14 15 14 13 11 11 11 10 10 10 11 14 16 16 14 11 12 14 13 10 12 19 32 29 28 29 27 25 24 20 15 8 10 6 6 10 17 18
16 15 15 14 13 12 12 12 13 14 15 15 14 13 12 12 12 11 9 13 16 16 15 14 16 15 13 12 16 36 36 30 31 30 27 21 20 9 16 14 9 11 13 15 16
19 16 16 16 14 13 13 12 11 11 11 14 17 16 15 14 13 12 11 10 13 14 16 17 16 14 14 13 12 32 41 34 34 35 34 30 23 23 24 10 9 9 10 13 14
24 21 18 18 18 16 15 13 11 10 10 11 13 16 16 14 15 14 13 13 13 14 14 13 15 15 15 13 14 17 40 39 39 36 33 30 21 21 23 13 12 10 12 12 11
24 24 22 21 21 19 17 15 13 11 10 9 11 15 16 12 14 15 15 15 14 13 13 15 14 14 12 14 18 19 23 40 40 33 33 29 27 26 25 16 15 9 10 9 10
21 22 23 23 23 22 20 19 16 14 12 11 11 11 11 17 19 17 16 17 16 15 15 15 16 17 17 15 17 21 21 31 31 30 30 31 28 30 26 21 18 12 10 10 13
22 22 23 24 24 24 23 21 19 17 15 13 13 12 11 13 13 14 17 17 17 17 16 15 17 17 20 21 22 23 31 32 34 34 30 30 30 30 29 24 21 12 10 10 12
23 23 23 24 26 26 25 23 22 19 17 17 17 15 14 13 11 12 15 17 17 17 15 16 17 18 19 20 22 25 30 36 38 39 39 37 33 35 29 25 23 16 10 12 12
23 24 25 25 26 26 26 25 24 22 21 22 20 20 17 18 15 16 15 15 16 17 17 17 16 18 23 23 23 25 25 29 37 42 42 38 33 31 30 26 24 20 14 9 12
24 23 24 24 26 26 25 25 25 24 25 25 25 23 21 20 20 18 17 16 15 16 18 19 17 25 25 24 25 25 26 28 29 32 33 30 27 25 27 23 20 19 16 14 14
28 27 26 23 25 25 23 23 23 26 26 26 25 26 24 22 23 23 21 20 19 18 19 20 23 24 23 23 25 26 26 27 27 30 30 27 22 22 23 23 17 20 20 19 20
34 32 31 29 29 27 24 23 25 27 25 24 25 24 22 23 24 26 24 23 21 21 21 21 23 25 24 23 25 23 24 26 26 27 29 26 25 24 23 22 18 23 25 25 26
38 37 36 35 33 30 28 30 31 28 28 27 26 24 23 22 24 25 26 26 24 24 21 22 24 25 23 27 25 23 26 28 26 26 27 27 30 26 27 26 26 26 27 29 33
40 39 37 37 38 34 32 33 32 32 31 28 26 27 26 25 27 24 23 25 27 28 24 27 27 25 24 25 26 24 25 25 25 23 24 25 27 27 26 28 32 34 35 36 38
41 41 37 38 40 36 34 36 36 36 30 33 31 28 27 27 30 28 29 27 26 25 21 27 27 23 23 23 23 21 21 24 26 25 25 24 27 27 27 27 30 34 40 42 42
41 42 40 41 39 37 36 37 38 34 30 32 31 31 29 29 30 29 30 30 29 26 25 27 28 24 24 23 25 23 22 26 27 25 23 25 26 25 26 27 27 29 31 31 32
41 42 41 41 41 39 40 41 35 32 33 34 33 33 32 32 33 32 30 27 26 24 25 22 22 26 26 27 27 25 26 26 27 26 25 24 25 25 23 26 26 26 27 30 33
40 42 40 41 42 41 42 41 38 35 35 35 37 36 37 35 34 34 30 29 28 28 28 27 26 27 27 28 28 28 28 28 27 28 26 26 26 25 25 24 25 27 28 29 31
39 40 39 40 42 43 43 39 36 35 37 38 40 39 38 38 37 36 33 30 31 33 34 32 32 29 30 30 31 33 33 31 30 30 29 30 29 24 24 26 27 28 29 31 33
42 42 39 39 40 41 40 35 36 37 39 40 40 40 39 39 39 37 36 34 34 33 33 32 34 33 34 35 35 35 35 33 33 32 31 32 28 23 23 27 26 29 30 33 37
45 46 42 40 39 39 39 37 39 40 40 39 39 41 41 39 39 39 36 33 34 34 33 30 32 27 32 34 35 35 36 35 36 35 34 31 23 24 29 27 27 29 29 29 29
49 48 46 44 40 40 40 39 38 37 37 38 38 41 41 41 39 37 35 35 34 30 29 33 35 33 28 27 29 32 36 36 36 36 36 34 30 31 29 29 26 25 22 25 29
52 51 49 46 42 40 41 40 39 38 38 39 38 39 40 42 41 39 37 35 33 31 29 28 29 29 30 30 31 30 33 36 38 39 39 36 37 32 27 25 24 22 21 25 28
48 51 53 49 44 41 40 41 41 41 42 42 40 41 40 41 41 42 40 38 35 36 36 36 34 31 28 27 25 26 31 34 36 35 35 41 37 32 26 24 21 22 24 25 26
44 47 52 53 49 44 42 41 43 42 41 43 40 40 40 39 40 40 40 40 38 37 39 39 34 35 34 33 30 31 41 37 37 37 34 36 37 29 29 26 24 25 29 28 28
Wind_Direction
250 251 249 246 243 239 236 232 229 224 218 209 214 218 217 216 215 219 225 221 221 223 217 213 204 205 210 212 220 206 213 217 229 240 258 262 272 283 274 141 31 17 8 3 350
253 255 251 245 243 240 238 235 231 231 228 218 211 210 216 222 223 224 227 221 220 218 220 214 207 208 213 219 212 209 215 222 231 241 254 261 268 269 278 187 356 20 358 342 349
253 252 246 241 240 238 238 236 234 232 232 229 225 219 218 219 220 223 225 223 227 224 215 213 216 215 214 218 216 197 215 222 235 247 262 261 269 280 273 308 302 349 347 348 353
248 247 241 239 234 234 237 234 233 235 236 234 231 227 223 224 225 225 228 222 223 222 220 215 220 217 217 220 208 197 213 220 240 243 252 259 264 243 314 301 317 351 9 349 346
243 246 240 238 236 234 236 237 233 231 229 232 233 229 227 227 227 224 225 224 222 219 218 222 226 224 230 227 212 202 211 217 236 248 255 267 265 274 305 317 348 352 350 349 347
241 241 242 237 234 234 233 233 234 234 226 226 229 229 226 223 226 225 224 224 222 221 223 222 227 227 230 235 234 224 214 216 233 245 260 267 277 271 299 301 332 351 3 1 352
245 242 240 237 233 231 232 233 230 231 230 225 226 231 232 227 229 228 223 222 221 223 223 223 215 220 224 228 234 237 226 225 234 249 258 265 267 268 288 305 319 341 348 343 344
247 244 241 239 234 232 232 234 232 230 231 229 231 233 239 230 230 227 224 224 224 220 216 218 219 222 222 217 220 234 235 226 235 252 260 266 269 275 281 292 299 316 320 319 330
247 245 243 241 238 235 234 235 238 236 236 236 237 237 235 241 247 247 237 229 227 229 228 223 221 222 225 224 216 220 224 231 240 256 264 266 267 274 277 280 282 296 307 314 330
247 245 243 242 241 238 238 238 240 242 241 239 240 239 241 249 238 234 241 239 233 231 231 230 232 232 233 238 235 228 221 229 239 249 259 264 268 273 275 280 281 285 304 321 324
247 245 244 243 244 241 241 241 242 242 242 240 240 239 238 248 243 242 238 239 240 239 235 234 235 239 235 233 231 233 231 227 234 241 249 260 263 271 276 278 281 290 285 305 321
248 246 246 243 246 244 243 245 246 243 243 242 242 243 236 241 249 248 245 241 238 239 236 233 220 231 238 239 240 238 234 235 237 240 250 255 260 270 271 274 270 280 278 291 309
250 249 247 244 246 246 243 243 242 243 242 246 243 244 240 237 240 246 245 241 241 235 239 235 227 234 236 238 245 247 248 246 242 247 253 254 259 266 270 267 270 282 290 297 301
252 250 250 248 248 247 245 242 240 239 241 242 241 241 244 237 234 238 244 242 241 240 237 239 240 239 238 239 241 247 251 250 249 254 260 264 267 265 269 270 274 275 285 290 295
250 251 251 251 249 249 246 245 244 245 246 239 243 242 240 237 232 236 236 242 241 239 240 243 245 245 245 245 247 245 246 246 249 250 258 261 264 267 268 272 279 284 288 294 297
250 250 249 250 251 250 249 248 248 246 244 246 242 244 240 236 235 238 242 240 242 241 236 241 244 245 243 245 249 248 253 261 261 260 257 258 264 268 266 267 275 282 285 286 288
249 247 246 247 249 246 244 247 247 247 246 245 245 242 243 239 241 240 239 240 241 244 242 246 251 253 249 247 251 251 257 261 260 261 262 260 261 267 272 268 266 268 269 271 276
249 248 246 246 245 244 242 243 244 244 241 243 244 243 240 241 242 240 238 237 240 238 231 235 244 241 240 239 243 245 248 253 256 255 257 260 263 268 270 275 279 278 278 279 280
248 246 245 244 245 241 240 242 242 240 238 240 240 240 240 240 243 239 239 237 231 230 233 232 241 247 242 239 244 248 247 254 258 262 264 268 269 272 278 281 285 288 290 289 290
248 247 244 242 243 240 240 241 239 236 236 236 237 236 241 241 241 244 242 239 238 236 236 234 233 237 241 242 245 245 244 249 258 267 272 273 276 282 287 290 294 292 296 301 302
245 246 244 242 240 239 241 240 237 234 233 232 237 236 235 240 243 244 244 241 238 240 241 238 236 236 241 241 244 249 249 248 256 263 269 274 278 286 291 299 301 307 301 300 306
244 244 244 242 240 239 238 236 232 229 229 229 233 239 236 237 240 241 243 238 240 241 244 243 241 234 235 239 242 246 251 254 255 261 265 272 286 295 293 298 296 300 299 302 309
240 242 240 241 239 238 235 231 228 228 231 234 233 237 240 238 239 242 242 245 244 236 238 240 243 233 238 239 244 248 251 255 257 265 271 279 287 294 297 291 294 290 291 300 311
237 239 238 238 239 237 233 228 226 229 235 237 237 236 238 240 241 243 244 245 248 250 240 238 244 244 242 250 246 248 255 262 267 270 273 271 279 291 298 300 297 293 298 305 312
234 236 237 236 236 238 234 229 226 227 233 237 237 237 236 238 237 239 241 246 251 257 258 257 253 253 252 247 244 247 250 255 260 264 269 274 277 285 288 292 291 292 298 303 314
233 233 236 236 234 234 235 231 228 227 232 238 236 235 234 235 235 235 240 244 246 253 258 262 264 265 264 261 259 253 255 259 261 264 261 272 276 281 283 290 284 283 289 300 310
232 231 234 233 232 231 232 230 228 228 231 236 235 237 235 234 236 238 239 240 243 241 245 254 252 263 265 265 263 267 267 258 256 266 272 276 276 277 284 288 287 286 285 297 303